Showing default

ARCSTONE, 64540

Orbit data source: Space-Track

ARCSTONE, 64540 is a payload satellite owned by NASA LaRC (US) in SSO that was launched on Mon, 23 Jun 2025 UTC via an FALCON 9 launch vehicle from the Air Force Western Test Range (AFWTR). Payload-class satellites include a variety of spacecraft equipped with specific instruments for various scientific and technological missions. These include communications satellites like Starlink; space stations such as the ISS; scientific satellites like the Hubble; Earth observation satellites from companies like Planet Labs, Umbra, and HawkEye 360; GPS; miniature CubeSats for education and research; and military/defense satellites.

Loading next visibility...
Identifier
64540, 2025-135N
Orbit
SSO
Country
Flag of USUS
Related business
Manufacturer
Blue Canyon
Mission
Operational Civil Astronomy
Bus & Motor
CUBESAT 6U, Unknown motor
Mass
5 kg wet, 5 kg dry
Launch date (UTC)
2025-06-23 (5 months ago)
Launch vehicle
FALCON 9
Launch site
Air Force Western Test Range (AFWTR)
Object type
Payload
Rocket body
Debris
Shape & HBR
Box + 2 Pan, 0.7 m
Radar Cross Section
0.072 m², Medium (>0.1 m² and < 1m²)

Expand to show TLE details & history
Last TLE update: 10 hours ago

TLE from 10 hours ago
0 ARCSTONE
1 64540U 25135N   25340.85070069  .00029779  00000-0  12365-2 0  9997
2 64540  97.4514  93.1711 0004232 137.2668 222.8899 15.23776760 25659
Epoch: 2025-12-06T20:25Z
TLE epoch observation values (Epoch: 2025-12-06T20:25:00.539Z)
Latitude
-0.00001°
Longitude
71.04634°
Altitude
499.687 km
Speed
7.613 km/s
True Right ascension
06h 12m 41s
True Declination
0° 00' 00"
Sunlit
Object was in full shadow at epoch
Visualization orbit readout
Latitude
Unknown
Longitude
Unknown
Altitude
Unknown
Speed
Unknown
Apparent Right ascension
Unknown
Apparent Declination
Unknown
Sunlit
N/A
Visualization observer readout
Local Sidereal Time
04:11:46
Azimuth
Unknown
Elevation
Unknown
Doppler factor
Unknown
Orbital elements
Apogee altitude
494.331 km
Perigee altitude
488.517 km
Semi-major axis
6,869.561 km
Eccentricity
0.00042
Inclination
97.4514°
RAAN
93.1711°
Arg. of periapsis
137.2668°
True anomaly
222.85691°
Mean anomaly
222.8899°
Eccentric anomaly
222.8734°
Mean motion
3.81197 °/min
Orbital period
94.44 mins
BSTAR
0.0012365
Loading maneuver chart data...
Computing Atmospheric mass density...
Loading historical data...
Loading historical data...
Loading historical data...
Loading historical data...
Loading historical data...
Loading historical data...
Loading historical data...

Documentation

Showing up to 5 results
|